Regional Weather Roundup
Issued by NWS Northern Indiana

Home | Current Version | Previous Version | Graphics & Text | Print | Product List | Glossary On
Versions: 1 2 3 4 5 6 7 8 9 10 11 12 13 14 15 16 17 18 19 20 21 22 23 24 25 26 27 28 29 30 31 32 33 34 35 36 37 38 39 40 41 42 43 44 45 46 47 48 49 50
000
ASUS43 KIWX 091910
RWRIWX

KIWX WEATHER ROUNDUP
NATIONAL WEATHER SERVICE NORTHERN INDIANA
200 PM EST TUE FEB 09 2016

NOTE: "FAIR" INDICATES FEW OR NO CLOUDS BELOW 12,000 FEET WITH NO
SIGNIFICANT WEATHER AND/OR OBSTRUCTIONS TO VISIBILITY.

* THESE STATIONS ARE NOT UNDER NWS QUALITY CONTROL. THEY ALSO MAY NOT
  REPORT WEATHER SUCH AS PRECIPITATION OR FOG.

INZ001>027-092000-
NORTHERN INDIANA

CITY           SKY/WX    TMP DP  RH WIND       PRES   REMARKS
GARY*          PTSUNNY   21  10  63 NW12      29.83S WCI   9
VALPARAISO     LGT SNOW  20  12  71 MISG      29.79S
MICHIGAN CITY* LGT SNOW  21  16  79 NW8G21    29.79S WCI  12
LAPORTE*       LGT SNOW  23  17  79 NW13G20   29.77S WCI  11
KNOX*          CLOUDY    23  16  74 NW15G21   29.78S WCI  10
SOUTH BEND     LGT SNOW  23  18  81 NW16      29.74S WCI  10
ELKHART*       CLOUDY    27  19  74 NW17      29.72S WCI  14
GOSHEN         LGT SNOW  26  20  77 NW15      29.70S WCI  14
MONTICELLO*    LGT SNOW  21  13  70 W14       29.80S WCI   8
LOGANSPORT*    LGT SNOW  21  12  68 W13G20    29.79R WCI   9
ROCHESTER*     LGT SNOW  27  18  69 NW16      29.75R WCI  14
WARSAW*        CLOUDY    27  19  74 NW14G22   29.71S WCI  15
ANGOLA*        CLOUDY    27  19  74 NW16      29.64S WCI  14
FORT WAYNE     FLURRIES  29  21  72 W16       29.69S WCI  17
HUNTINGTON*    CLOUDY    24  17  72 W15G22    29.71S WCI  12
PERU/GRISSOM   FLURRIES  21  16  79 W20       29.74S WCI   6
MARION*        CLOUDY    22  13  65 W18G24    29.75S WCI   8

$$
INZ028>050-092000-
CENTRAL INDIANA

CITY           SKY/WX    TMP DP  RH WIND       PRES   REMARKS
LAFAYETTE      LGT SNOW  20  15  81 NW14      29.82S WCI   7
KOKOMO*        CLOUDY    21  16  79 NW20      29.76S WCI   6
MUNCIE*        LGT SNOW  24  17  74 W14       29.74S WCI  12
INDIANAPOLIS   FLURRIES  23  14  68 W20       29.79S WCI   8

$$
MIZ043>046-050>051-056>058-064>065-071>073-077>080-092000-
SOUTHWEST LOWER MICHIGAN

CITY           SKY/WX    TMP DP  RH WIND       PRES   REMARKS
BATTLE CREEK   CLOUDY    26  18  71 W18       29.65F WCI  13
BENTON HARBOR  LGT SNOW  25  18  74 W13G21    29.75S WCI  14
COLDWATER*     CLOUDY    27  20  75 NW16      29.65S WCI  15
HILLSDALE*     CLOUDY    26  19  76 NW17G29   29.61S WCI  13
HOLLAND        LGT SNOW  27  20  75 NW18G25   29.71S WCI  14
GRAND RAPIDS   FLURRIES  27  19  72 NW17      29.66F WCI  14
KALAMAZOO      CLOUDY    27  19  72 NW15G26   29.67S WCI  15
STURGIS*       CLOUDY    27  19  73 NW13G22   29.66S WCI  16
THREE RIVERS*  CLOUDY    28  21  75 NW16G22   29.69R WCI  15

$$
OHZ001>008-015>018-024>025-092000-
NORTHWEST OHIO

CITY           SKY/WX    TMP DP  RH WIND       PRES   REMARKS
DEFIANCE       CLOUDY    30  21  69 NW14      29.66S WCI  19
FINDLAY        CLOUDY    31  24  75 W16       29.62F WCI  20
TOLEDO EXPRESS CLOUDY    29  23  78 W12       29.62S WCI  19
TOLEDO METCALF CLOUDY    31  24  75 W18       29.62S HAZE    WCI  19
LIMA           CLOUDY    26  22  84 W17       29.65S WCI  13

$$
AND FOR LAKE MICHIGAN COASTAL AND OPEN LAKE BUOY OBSERVATIONS

STATION/POSITION TEMP    WIND        PRES    VSBY  WAVE
                 AIR SEA DIR/SP/G                  HT/PER
                 (F)     (DEG/KT/KT) (MB)    (MI)  (FT/S)
CALUMET HARBOR    19     300/  6/ 11 1009.5F
MICHIGAN CITY     21     290/ 16/ 19   N/A
BURNS HARBOR      20     310/ 15/ 21 1009.8S
SAINT JOSEPH      24     290/ 18/ 22 1008.5S

$$
&&



USA.gov is the U.S. government's official web portal to all federal, state and local government web resources and services.